Date String (YYYY-MM-DD hh:mm:ss) UTC,Instrument flags,Ambient pressure (hPa),Sample flow (lpm),Bypass flow (lpm),Sample temperature (°C),Ambient temperature (°C),ASC tube jacket temperature (°C),LED temperature (°C),Box temperature (°C),Sample RH (%),Span deviation,Mass concentration (μg/m³),Mass concentration (μg/m³),Mass concentration (μg/m³)
DateTimeUTC,F1_M11,P_M11,Q1_M11,Q2_M11,T1_M11,T2_M11,T3_M11,T4_M11,T5_M11,U1_M11,ZSPAN_M11,X0_M11,X2_M11,X1_M11
2022-04-29 22:00:00,,0816.3,5.00,0.00,26.6,25.6,00.0,35.5,28.5,06.0,0000.0,0010.84,0003.62,0001.94
2022-04-29 22:01:00,,0816.3,4.99,0.00,26.6,25.6,00.0,35.5,28.5,06.2,0000.0,0010.83,0003.54,0001.92
2022-04-29 22:02:00,,0816.3,4.99,0.00,26.6,25.7,00.0,35.5,28.5,06.4,0000.0,0010.81,0003.52,0001.93
2022-04-29 22:03:00,,0816.2,5.02,0.00,26.6,25.6,00.0,35.5,28.5,06.2,0000.0,0011.72,0003.56,0001.92
2022-04-29 22:04:00,,0816.3,5.00,0.00,26.6,25.6,00.0,35.5,28.4,06.2,0000.0,0011.76,0003.52,0001.92
2022-04-29 22:05:00,,0816.4,5.01,0.00,26.6,25.6,00.0,35.5,28.5,06.2,0000.0,0012.23,0003.52,0001.90
2022-04-29 22:06:00,,0816.4,4.98,0.00,26.6,25.6,00.0,35.5,28.4,06.3,0000.0,0012.61,0003.54,0001.90
2022-04-29 22:07:00,,0816.3,5.01,0.00,26.6,25.6,00.0,35.5,28.4,06.3,0000.0,0012.50,0003.46,0001.90
2022-04-29 22:08:00,,0816.4,4.98,0.00,26.6,25.6,00.0,35.5,28.4,06.4,0000.0,0011.57,0003.40,0001.90
2022-04-29 22:09:00,,0816.3,4.99,0.00,26.6,25.6,00.0,35.5,28.4,06.4,0000.0,0010.44,0003.32,0001.89
2022-04-29 22:10:00,,0816.3,5.02,0.00,26.6,25.6,00.0,35.5,28.4,06.4,0000.0,0010.27,0003.30,0001.88
2022-04-29 22:11:00,,0816.0,4.98,0.00,26.6,25.6,00.0,35.5,28.4,06.7,0000.0,0010.44,0003.33,0001.89
2022-04-29 22:12:00,,0815.9,5.01,0.00,26.6,25.5,00.0,35.5,28.4,07.0,0000.0,0010.39,0003.40,0001.90
2022-04-29 22:13:00,,0816.1,4.99,0.00,26.6,25.5,00.0,35.5,28.4,07.1,0000.0,0011.47,0003.51,0001.89
2022-04-29 22:14:00,,0816.0,5.00,0.00,26.6,25.5,00.0,35.5,28.4,07.1,0000.0,0011.56,0003.57,0001.90
2022-04-29 22:15:00,,0815.6,5.01,0.00,26.5,25.4,00.0,35.5,28.3,06.9,0000.0,0013.13,0003.62,0001.90
2022-04-29 22:16:00,,0815.7,4.98,0.00,26.5,25.4,00.0,35.5,28.3,06.7,0000.0,0016.86,0003.80,0001.92
2022-04-29 22:17:00,,0816.0,5.01,0.00,26.5,25.4,00.0,35.5,28.3,06.7,0000.0,0019.96,0004.07,0001.97
2022-04-29 22:18:00,,0816.0,4.99,0.00,26.5,25.3,00.0,35.5,28.3,06.8,0000.0,0021.88,0004.23,0002.00
2022-04-29 22:19:00,,0816.4,5.01,0.00,26.5,25.3,00.0,35.4,28.2,06.8,0000.0,0022.21,0004.26,0002.00
2022-04-29 22:20:00,,0816.5,5.00,0.00,26.5,25.3,00.0,35.4,28.2,07.0,0000.0,0022.60,0004.26,0001.98
2022-04-29 22:21:00,,0816.4,4.99,0.00,26.5,25.4,00.0,35.4,28.3,06.9,0000.0,0023.10,0004.25,0001.98
2022-04-29 22:22:00,,0816.4,5.02,0.00,26.5,25.4,00.0,35.4,28.3,06.8,0000.0,0023.59,0004.24,0001.96
2022-04-29 22:23:00,,0816.5,4.99,0.00,26.5,25.4,00.0,35.4,28.3,06.8,0000.0,0023.25,0004.19,0001.96
2022-04-29 22:24:00,,0816.5,5.01,0.00,26.5,25.4,00.0,35.4,28.2,07.0,0000.0,0022.18,0004.06,0001.96
2022-04-29 22:25:00,,0816.1,4.99,0.00,26.5,25.4,00.0,35.4,28.3,06.8,0000.0,0021.29,0003.98,0001.95
2022-04-29 22:26:00,,0816.3,5.00,0.00,26.4,25.4,00.0,35.4,28.2,06.7,0000.0,0020.68,0003.96,0001.95
2022-04-29 22:27:00,,0816.3,5.00,0.00,26.4,25.4,00.0,35.4,28.2,06.9,0000.0,0017.57,0003.87,0001.95
2022-04-29 22:28:00,,0816.4,5.02,0.00,26.4,25.4,00.0,35.4,28.2,06.9,0000.0,0013.97,0003.57,0001.90
2022-04-29 22:29:00,,0816.5,5.01,0.00,26.4,25.4,00.0,35.4,28.2,07.1,0000.0,0011.57,0003.39,0001.88
2022-04-29 22:30:00,,0816.5,5.00,0.00,26.4,25.4,00.0,35.4,28.3,07.1,0000.0,0010.87,0003.28,0001.87
2022-04-29 22:31:00,,0816.5,5.00,0.00,26.4,25.4,00.0,35.4,28.3,07.0,0000.0,0010.44,0003.26,0001.87
2022-04-29 22:32:00,,0816.6,4.99,0.00,26.4,25.4,00.0,35.4,28.3,07.0,0000.0,0009.85,0003.22,0001.87
2022-04-29 22:33:00,,0816.8,5.02,0.00,26.4,25.4,00.0,35.4,28.2,07.3,0000.0,0009.34,0003.21,0001.85
2022-04-29 22:34:00,,0817.0,4.99,0.00,26.4,25.4,00.0,35.4,28.3,07.5,0000.0,0009.87,0003.21,0001.84
2022-04-29 22:35:00,,0816.9,5.00,0.00,26.4,25.4,00.0,35.4,28.2,07.6,0000.0,0009.74,0003.21,0001.83
2022-04-29 22:36:00,,0816.6,5.01,0.00,26.4,25.4,00.0,35.4,28.2,07.7,0000.0,0010.56,0003.20,0001.83
2022-04-29 22:37:00,,0816.8,4.99,0.00,26.4,25.4,00.0,35.3,28.3,07.7,0000.0,0010.20,0003.17,0001.79
2022-04-29 22:38:00,,0816.7,5.01,0.00,26.4,25.4,00.0,35.3,28.3,07.7,0000.0,0010.49,0003.10,0001.77
2022-04-29 22:39:00,,0816.6,5.00,0.00,26.4,25.4,00.0,35.3,28.3,07.6,0000.0,0009.77,0003.02,0001.76
2022-04-29 22:40:00,,0816.3,5.01,0.00,26.4,25.3,00.0,35.3,28.2,07.6,0000.0,0009.78,0002.94,0001.73
2022-04-29 22:41:00,,0816.8,4.99,0.00,26.4,25.3,00.0,35.3,28.2,07.6,0000.0,0010.37,0002.92,0001.72
2022-04-29 22:42:00,,0816.8,4.99,0.00,26.4,25.3,00.0,35.3,28.2,07.7,0000.0,0011.00,0003.00,0001.74
2022-04-29 22:43:00,,0816.6,5.01,0.00,26.4,25.3,00.0,35.3,28.2,07.5,0000.0,0012.98,0003.13,0001.75
2022-04-29 22:44:00,,0816.7,5.01,0.00,26.4,25.3,00.0,35.3,28.2,07.3,0000.0,0013.14,0003.14,0001.76
2022-04-29 22:45:00,,0817.0,4.99,0.00,26.4,25.3,00.0,35.3,28.2,07.0,0000.0,0012.61,0003.18,0001.77
2022-04-29 22:46:00,,0816.6,5.01,0.00,26.4,25.3,00.0,35.3,28.2,07.2,0000.0,0012.49,0003.20,0001.77
2022-04-29 22:47:00,,0816.8,4.99,0.00,26.4,25.3,00.0,35.3,28.2,07.1,0000.0,0011.90,0003.25,0001.78
2022-04-29 22:48:00,,0816.7,5.01,0.00,26.4,25.3,00.0,35.3,28.2,07.1,0000.0,0011.55,0003.29,0001.80
2022-04-29 22:49:00,,0816.8,5.01,0.00,26.4,25.3,00.0,35.3,28.2,06.9,0000.0,0010.66,0003.28,0001.82
2022-04-29 22:50:00,,0816.9,4.98,0.00,26.4,25.3,00.0,35.3,28.2,07.0,0000.0,0011.69,0003.42,0001.85
2022-04-29 22:51:00,,0816.9,5.02,0.00,26.4,25.3,00.0,35.3,28.2,06.9,0000.0,0011.90,0003.51,0001.87
2022-04-29 22:52:00,,0817.1,5.00,0.00,26.4,25.3,00.0,35.3,28.2,06.8,0000.0,0011.32,0003.56,0001.88
2022-04-29 22:53:00,,0817.3,4.98,0.00,26.4,25.3,00.0,35.3,28.2,06.6,0000.0,0011.18,0003.55,0001.89
2022-04-29 22:54:00,,0817.0,5.00,0.00,26.4,25.3,00.0,35.3,28.2,06.8,0000.0,0009.49,0003.50,0001.89
2022-04-29 22:55:00,,0816.9,4.98,0.00,26.4,25.3,00.0,35.3,28.2,07.1,0000.0,0009.41,0003.56,0001.90
2022-04-29 22:56:00,,0816.9,5.01,0.00,26.4,25.3,00.0,35.3,28.2,07.2,0000.0,0009.74,0003.63,0001.93
2022-04-29 22:57:00,,0817.0,4.98,0.00,26.4,25.3,00.0,35.3,28.2,07.2,0000.0,0010.23,0003.68,0001.94
2022-04-29 22:58:00,,0817.2,5.02,0.00,26.4,25.3,00.0,35.3,28.2,07.4,0000.0,0010.51,0003.62,0001.93
2022-04-29 22:59:00,,0817.2,4.99,0.00,26.4,25.3,00.0,35.3,28.2,07.6,0000.0,0010.34,0003.57,0001.91
